Regional Weather Roundup
Issued by NWS Upton, NY

Current Version | Previous Version | Text Only | Print | Product List | Glossary On
Versions: 1 2 3 4 5 6 7 8 9 10 11 12 13 14 15 16 17 18 19 20 21 22 23 24 25 26 27
000
ASUS41 KOKX 250605
RWROKX

REGIONAL WEATHER ROUNDUP
NATIONAL WEATHER SERVICE NEW YORK NY
200 AM EDT SAT OCT 25 2014

NOTE: "FAIR" INDICATES FEW OR NO CLOUDS BELOW 12,000 FEET WITH NO
SIGNIFICANT WEATHER AND/OR OBSTRUCTIONS TO VISIBILITY.

NYZ071-072-176-178-NJZ106-104-250700-
NEW YORK CITY METRO AREA


CITY           SKY/WX    TMP DP  RH WIND       PRES   REMARKS
CENTRAL PARK   CLEAR     55  35  47 NW6       29.88R
LAGUARDIA APRT MOCLDY    56  37  49 NW13      29.85R
KENNEDY INTL   PTCLDY    54  37  52 NW8       29.86R
NEWARK/LIBERTY MOCLDY    54  38  54 NW8       29.86R
BRNX BOT. GARD   N/A     52  36  54 N3        29.87R
TETERBORO      CLEAR     50  35  56 CALM      29.85R
$$

NYZ177-179-078>081-250700-
LONG ISLAND NEW YORK

CITY           SKY/WX    TMP DP  RH WIND       PRES   REMARKS
FARMINGDALE    CLEAR     49  45  86 NW3       29.85R
ISLIP          CLEAR     51  45  79 NW10      29.81S
SHIRLEY        CLEAR     52  44  74 NW9       29.83R
WESTHAMPTON    CLEAR     52  44  74 NW10      29.82S
MONTAUK POINT    N/A     54  45  71 NW14G21   29.80S
$$

NYZ052-065-067-250700-
HUDSON VALLEY

CITY           SKY/WX    TMP DP  RH WIND       PRES   REMARKS
WHITE PLAINS   CLEAR     47  43  86 NW5       29.83R
NEWBURGH       NOT AVBL
MONTGOMERY     CLEAR     50  33  52 NW8       29.85R
POUGHKEEPSIE   CLEAR     40  38  93 CALM      29.86R
ALBANY         PTCLDY    41  39  93 CALM      29.84F
$$

NJZ001-105-106-008-010-013-015-019>022-104-250700-
NEW JERSEY

CITY           SKY/WX    TMP DP  RH WIND       PRES   REMARKS
NEWARK/LIBERTY MOCLDY    54  38  54 NW8       29.86R
TETERBORO      CLEAR     50  35  56 CALM      29.85R
CALDWELL       CLEAR     52  36  54 NW5       29.88R
MORRISTOWN     PTCLDY    50  39  66 CALM      29.88R
SOMERVILLE     PTCLDY    44  38  79 NW3       29.87R
SUSSEX         PTCLDY    52  37  56 VRB5      29.88S
ANDOVER          N/A     50  32  50 N7        29.89R
TRENTON        CLEAR     53  34  48 CALM      29.88R
MILLVILLE      CLEAR     50  40  68 W8        29.90R
ATLANTIC CITY  CLEAR     46  39  76 NW5       29.89R
WRIGHTSTOWN    PTCLDY    50  43  75 NW5       29.87R HAZE
TOMS RIVER     MOCLDY    46  43  87 CALM      29.88S
BELMAR         MOCLDY    54  36  50 NW10      29.86S
$$

PAZ047>061-062-071-250700-
EASTERN PENNSYLVANIA

CITY           SKY/WX    TMP DP  RH WIND       PRES   REMARKS
PHILADELPHIA   PTCLDY    55  37  50 NW8       29.90S
ALLENTOWN      CLEAR     51  29  42 NW6       29.90S
SCRANTON       CLEAR     45  33  63 CALM      29.91S
$$

CTZ002-004>006-009-010-012-RIZ004-006-007-MAZ004-011-015-250700-
SOUTHERN NEW ENGLAND
 IN CT

CITY           SKY/WX    TMP DP  RH WIND       PRES   REMARKS
BRADLEY INTL   CLEAR     50  39  66 NW7       29.78F
HARTFORD       CLEAR     47  43  86 SW7       29.80S
DANBURY        CLEAR     48  39  71 NW5       29.85R
WTRBRY/OXFORD  CLEAR     48  37  66 NW7       29.82R
BRIDGEPORT     CLEAR     52  42  69 NW12      29.82R
MERIDEN        CLEAR     50  41  71 NW8       29.80S
NEW HAVEN      CLEAR     53  44  71 NW7       29.81R
CHESTER        FAIR      48  43  81 NW6       29.79S
GROTON         CLEAR     47  43  86 W5        29.78S
WILLIMANTIC    CLEAR     44  41  89 CALM      29.78F

 IN RI

CITY           SKY/WX    TMP DP  RH WIND       PRES   REMARKS
PROVIDENCE     CLEAR     47  42  83 W3        29.77S
BLOCK ISLAND   CLOUDY    52  41  66 NW13G20   29.77S
WESTERLY       CLEAR     49  43  80 CALM      29.78S

 IN MA

CITY           SKY/WX    TMP DP  RH WIND       PRES   REMARKS
BOSTON         MOCLDY    46  41  82 W10       29.75S
WORCESTER      CLEAR     45  38  76 NW12      29.76R
WESTFIELD      CLEAR     49  37  63 NW8       29.79S
PROVINCETOWN   CLOUDY    52  -2  11 NW12      29.74S
NANTUCKET      CLOUDY    51  44  77 NW9       29.73F
$$

ANZ330-335-338-340-345-350-353-355-250700-
COASTAL MARINE OBSERVATIONS


STATION/POSITION TIME  SKY/WX   TEMP    WIND        PRES    VSBY  WAVE
                                AIR SEA DIR/SP/G                  HT/PER
                 (UTC)          (F)     (DEG/KT/KT) (MB)    (MI)  (FT/S)
NY HARB ENTRANCE NOT AVBL
4S FIRE IS       0600               62                N/A           2/10
20S FIRE ISLAND  0600            59 63  340/ 16/ 19 1010.0          2/10
23SW MTP         0600                                 N/A           3/10
HUDSON CANYON    0600            61 66  320/ 14/ 17 1009.4          3/10
EXECUTION ROCKS  0500            55 61  280/  4/  6   N/A
WESTERN LI SOUND 0500            54     330/  8/ 12   N/A           0
CENTRAL LI SOUND 0500            55 63  310/ 14/ 17   N/A           2/ 4
EASTERN LI SOUND 0500            53 63  310/ 14/ 17   N/A
ROBBINS REEF     0600            56     320/  8/ 10 1010.0
$$


>>>>>>>>>>>>>>>>>>>>>>>>>>>> KEY <<<<<<<<<<<<<<<<<<<<<<<<<<<
>                                                          <
>     SKY/WX - SKY CONDITION/PRESENT WEATHER               <
>     TMP    - TEMPERATURE IN FAHRENHEIT                   <
>     DP     - DEWPOINT IN FAHRENHEIT                      <
>     RH     - RELATIVE HUMIDITY IN PERCENT                <
>     WIND   - DIRECTION AND SPEED IN MPH                  <
>     PRES   - MEAN SEA LEVEL PRESSURE IN INCHES OF HG     <
>     WCI    - WIND CHILL INDEX                            <
>     VSB    - VISIBILITY IN MILES                         <
>     HX     - HEAT INDEX                                  <
>     TC     - TEMPERATURE IN CELSIUS                      <
>     VRB    - VARIABLE WIND DIRECTION                     <
>                                                          <
>>>>>>>>>>>>>>>>>>>>>>>>>>>> KEY <<<<<<<<<<<<<<<<<<<<<<<<<<<





USA.gov is the U.S. government's official web portal to all federal, state and local government web resources and services.